Location: Cactus School
(34.5700°N, 118.0931°W)
Time: 22:10:35
(UTC-08:00)

Tiros 1 - Pass Details

Date: 24 November 2019
Orbit: 630 x 664 km, 48.4° (Epoch: 06 December)

Event Time Altitude Azimuth Distance (km) Brightness Sun altitude
Rises 15:55:09 0° 311° (NW) 2,917 10.7 7.9°
Reaches altitude 10° 15:58:09 10° 331° (NNW) 2,010 9.7 7.4°
Maximum altitude 16:01:18 18° 14° (NNE) 1,561 8.8 6.8°
Drops below altitude 10° 16:04:28 10° 58° (ENE) 2,016 9.1 6.3°
Sets 16:07:29 0° 77° (ENE) 2,929 9.9 5.7°
